Location: Pitton
(51.0667°N, 1.7000°W)
Time: 08:11:19
(UTC+00:00)

Cosmos 1674 - Pass Details

Date: 17 September 2019
Orbit: 495 x 519 km, 82.5° (Epoch: 23 October)

Event Time Altitude Azimuth Distance (km) Brightness Sun altitude
Rises 20:08:29 0° 353° (N) 2,606 6.8 -17.6°
Reaches altitude 10° 20:10:40 10° 360° (N) 1,714 5.7 -17.9°
Maximum altitude 20:14:18 48° 75° (ENE) 658 2.9 -18.4°
Enters shadow 20:14:33 47° 90° (E) 666 2.8 -18.4°
